Huntingburg, IN

9:05 AM EST on November 22, 2017 (GMT -0500)
Huntingburg

Weather History for KHNB - March, 2014

Change the Weather History Date:

Wednesday, March 12, 2014

  Actual Average Record
Temperature  
Mean Temperature 47 °F -  
Max Temperature 62 °F 49 °F 71 °F (2012)
Min Temperature 30 °F 32 °F 6 °F (1998)
Degree Days  
Heating Degree Days 18    
Moisture  
Dew Point 35 °F    
Average Humidity 71    
Maximum Humidity 88    
Minimum Humidity 55    
Precipitation  
Precipitation 0.11 in - - ()
Sea Level Pressure  
Sea Level Pressure 29.73 in    
Wind  
Wind Speed 15 mph (NW)    
Max Wind Speed 26 mph    
Max Gust Speed 40 mph    
Visibility 10 miles    
Events      
Averages and records for this station are not official NWS values.
T = Trace of Precipitation, MM = Missing Value Source: NWS Daily Summary

Daily Weather History Graph

Daily Weather History Graph

Search for Another Location

Airport or City:

Trip Planner

Search our weather history database for the weather conditions in past years. The results will help you decide how hot, cold, wet, or windy it might be!

Date:

Astronomy

Mar. 12, 2014 Rise Set
Actual Time 8:03 AM EDT 7:52 PM EDT
Civil Twilight 7:37 AM EDT 8:18 PM EDT
Nautical Twilight 7:06 AM EDT 8:49 PM EDT
Astronomical Twilight 6:35 AM EDT 9:19 PM EDT
Moon 4:24 PM EDT (3/12) 5:32 AM EDT (3/12)
Length of Visible Light 12h 41m
Length of Day
11h 48m
Waxing Gibbous, 85% of the Moon is Illuminated
Mar 12
Waxing Gibbous
Mar 16
Full
Mar 23
Last Quarter
Mar 30
New
Apr 7
First Quarter

Hourly Weather History & Observations

Time (EDT) Temp. Windchill Dew Point Humidity Pressure Visibility Wind Dir Wind Speed Gust Speed Precip Events Conditions
12:15 AM 60.8 °F - 46.4 °F 59% 29.52 in 10.0 mi ESE 3.5 mph - N/A   Overcast
12:35 AM 60.8 °F - 44.6 °F 55% 29.51 in 10.0 mi SSE 5.8 mph - N/A   Mostly Cloudy
12:55 AM 60.8 °F - 46.4 °F 59% 29.50 in 10.0 mi South 8.1 mph - N/A   Mostly Cloudy
1:15 AM 62.6 °F - 48.2 °F 59% 29.49 in 10.0 mi SSW 12.7 mph - N/A   Partly Cloudy
1:35 AM 62.6 °F - 51.8 °F 68% 29.48 in 10.0 mi SSW 11.5 mph - N/A   Scattered Clouds
1:55 AM 62.6 °F - 51.8 °F 68% 29.47 in 10.0 mi South 12.7 mph 18.4 mph N/A   Scattered Clouds
2:15 AM 60.8 °F - 51.8 °F 72% 29.45 in 10.0 mi South 10.4 mph - N/A   Mostly Cloudy
2:35 AM 60.8 °F - 51.8 °F 72% 29.45 in 10.0 mi SSW 9.2 mph - N/A   Overcast
2:55 AM 62.6 °F - 51.8 °F 68% 29.44 in 10.0 mi SSW 10.4 mph - N/A   Overcast
3:15 AM 62.6 °F - 51.8 °F 68% 29.43 in 10.0 mi SSW 9.2 mph - N/A   Overcast
3:35 AM 62.6 °F - 51.8 °F 68% 29.42 in 10.0 mi SSW 9.2 mph - N/A   Overcast
3:55 AM 62.6 °F - 51.8 °F 68% 29.40 in 10.0 mi SW 11.5 mph - N/A   Mostly Cloudy
4:15 AM 62.6 °F - 51.8 °F 68% 29.39 in 10.0 mi SW 15.0 mph 18.4 mph N/A   Mostly Cloudy
4:35 AM 62.6 °F - 53.6 °F 72% 29.37 in 10.0 mi SSW 17.3 mph - N/A   Overcast
4:55 AM 62.6 °F - 53.6 °F 72% 29.37 in 10.0 mi SW 16.1 mph 23.0 mph N/A   Overcast
5:15 AM 62.6 °F - 53.6 °F 72% 29.35 in 10.0 mi SW 16.1 mph 24.2 mph N/A   Overcast
5:35 AM 62.6 °F - 53.6 °F 72% 29.34 in 10.0 mi SW 23.0 mph 27.6 mph N/A   Overcast
5:55 AM 62.6 °F - 53.6 °F 72% 29.34 in 10.0 mi SW 25.3 mph 29.9 mph N/A   Mostly Cloudy
6:15 AM 62.6 °F - 55.4 °F 77% 29.33 in 10.0 mi SW 24.2 mph 31.1 mph N/A   Overcast
6:35 AM 55.4 °F - 51.8 °F 88% 29.37 in 7.0 mi West 20.7 mph 31.1 mph 0.11 in   Overcast
6:55 AM 51.8 °F - 46.4 °F 82% 29.40 in 6.0 mi West 24.2 mph 34.5 mph 0.11 in   Overcast
7:15 AM 46.4 °F 38.5 °F 42.8 °F 87% 29.43 in 6.0 mi NW 21.9 mph 28.8 mph N/A   Overcast
7:35 AM 44.6 °F 35.9 °F 37.4 °F 76% 29.46 in 10.0 mi NW 23.0 mph 31.1 mph N/A   Overcast
7:55 AM 42.8 °F 33.3 °F 37.4 °F 81% 29.49 in 10.0 mi NW 24.2 mph 35.7 mph N/A   Overcast
8:15 AM 42.8 °F 33.8 °F 35.6 °F 76% 29.50 in 10.0 mi NW 21.9 mph 28.8 mph N/A   Overcast
8:35 AM 41.0 °F 31.4 °F 35.6 °F 81% 29.53 in 10.0 mi NW 21.9 mph 28.8 mph N/A   Overcast
8:55 AM 39.2 °F 28.7 °F 33.8 °F 81% 29.55 in 10.0 mi NW 23.0 mph 32.2 mph N/A   Overcast
9:15 AM 39.2 °F 28.0 °F 33.8 °F 81% 29.58 in 3.0 mi NW 26.5 mph 35.7 mph N/A   Overcast
9:35 AM 39.2 °F 28.7 °F 33.8 °F 81% 29.59 in 9.0 mi NNW 23.0 mph 40.3 mph N/A   Overcast
9:55 AM 39.2 °F 28.7 °F 33.8 °F 81% 29.61 in 7.0 mi NNW 23.0 mph 39.1 mph N/A   Overcast
10:15 AM 39.2 °F 30.5 °F 33.8 °F 81% 29.64 in 10.0 mi NNW 16.1 mph 32.2 mph N/A   Overcast
10:35 AM 37.4 °F 26.1 °F 33.8 °F 87% 29.66 in 10.0 mi NNW 24.2 mph 33.4 mph N/A   Overcast
10:55 AM 37.4 °F 26.6 °F 30.2 °F 75% 29.68 in 10.0 mi NNW 21.9 mph 33.4 mph N/A   Overcast
11:15 AM 37.4 °F 26.9 °F 30.2 °F 75% 29.71 in 10.0 mi NNW 20.7 mph 32.2 mph N/A   Overcast
11:35 AM 37.4 °F 27.5 °F 30.2 °F 75% 29.73 in 10.0 mi NNW 18.4 mph 26.5 mph N/A   Overcast
11:55 AM 37.4 °F 26.9 °F 30.2 °F 75% 29.75 in 10.0 mi NNW 20.7 mph 29.9 mph N/A   Overcast
12:15 PM 37.4 °F 27.8 °F 30.2 °F 75% 29.76 in 10.0 mi NNW 17.3 mph 29.9 mph N/A   Overcast
12:35 PM 37.4 °F 26.4 °F 30.2 °F 75% 29.78 in 10.0 mi North 23.0 mph 34.5 mph N/A   Overcast
12:55 PM 37.4 °F 27.2 °F 30.2 °F 75% 29.80 in 10.0 mi NNW 19.6 mph 28.8 mph N/A   Overcast
1:15 PM 37.4 °F 27.5 °F 30.2 °F 75% 29.82 in 10.0 mi NNW 18.4 mph 35.7 mph N/A   Overcast
1:35 PM 37.4 °F 26.1 °F 28.4 °F 70% 29.83 in 10.0 mi NNW 24.2 mph 34.5 mph N/A   Overcast
1:55 PM 37.4 °F 26.4 °F 28.4 °F 70% 29.85 in 10.0 mi NNW 23.0 mph 32.2 mph N/A   Overcast
2:15 PM 37.4 °F 27.2 °F 30.2 °F 75% 29.86 in 10.0 mi NNW 19.6 mph 34.5 mph N/A   Overcast
2:35 PM 37.4 °F 26.9 °F 28.4 °F 70% 29.87 in 10.0 mi NNW 20.7 mph 29.9 mph N/A   Overcast
2:55 PM 37.4 °F 26.4 °F 28.4 °F 70% 29.88 in 10.0 mi NNW 23.0 mph 29.9 mph N/A   Overcast
3:15 PM 39.2 °F 29.3 °F 28.4 °F 65% 29.89 in 10.0 mi NNW 20.7 mph 32.2 mph N/A   Overcast
3:35 PM 39.2 °F 29.0 °F 28.4 °F 65% 29.90 in 10.0 mi NW 21.9 mph 27.6 mph N/A   Overcast
3:55 PM 39.2 °F 29.0 °F 28.4 °F 65% 29.91 in 10.0 mi NNW 21.9 mph 31.1 mph N/A   Overcast
4:15 PM 39.2 °F 29.3 °F 26.6 °F 61% 29.92 in 10.0 mi NNW 20.7 mph 33.4 mph N/A   Overcast
4:35 PM 39.2 °F 29.3 °F 26.6 °F 61% 29.93 in 10.0 mi NNW 20.7 mph 31.1 mph N/A   Mostly Cloudy
4:55 PM 39.2 °F 29.6 °F 26.6 °F 61% 29.94 in 10.0 mi NNW 19.6 mph 26.5 mph N/A   Mostly Cloudy
5:15 PM 39.2 °F 29.3 °F 26.6 °F 61% 29.95 in 10.0 mi NNW 20.7 mph 31.1 mph N/A   Mostly Cloudy
5:35 PM 39.2 °F 29.6 °F 24.8 °F 56% 29.96 in 10.0 mi NNW 19.6 mph 29.9 mph N/A   Mostly Cloudy
5:55 PM 39.2 °F 30.2 °F 24.8 °F 56% 29.97 in 10.0 mi NNW 17.3 mph 29.9 mph N/A   Overcast
6:15 PM 39.2 °F 29.6 °F 24.8 °F 56% 29.97 in 10.0 mi North 19.6 mph 24.2 mph N/A   Scattered Clouds
6:35 PM 39.2 °F 30.2 °F 24.8 °F 56% 29.98 in 10.0 mi NNW 17.3 mph 21.9 mph N/A   Scattered Clouds
6:55 PM 37.4 °F 27.8 °F 24.8 °F 60% 29.99 in 10.0 mi NNW 17.3 mph 24.2 mph N/A   Partly Cloudy
7:15 PM 35.6 °F 26.6 °F 24.8 °F 65% 30.01 in 10.0 mi NNW 13.8 mph 23.0 mph N/A   Clear
7:35 PM 35.6 °F 27.5 °F 24.8 °F 65% 30.02 in 10.0 mi NNW 11.5 mph 16.1 mph N/A   Scattered Clouds
7:55 PM 35.6 °F 28.0 °F 24.8 °F 65% 30.02 in 10.0 mi NNW 10.4 mph - N/A   Partly Cloudy
8:15 PM 35.6 °F 29.9 °F 24.8 °F 65% 30.03 in 10.0 mi NNW 6.9 mph - N/A   Mostly Cloudy
8:35 PM 35.6 °F 26.2 °F 24.8 °F 65% 30.04 in 10.0 mi NNW 15.0 mph 18.4 mph N/A   Overcast
8:55 PM 33.8 °F 23.9 °F 26.6 °F 75% 30.05 in 4.0 mi North 15.0 mph - N/A   Mostly Cloudy
9:15 PM 32.0 °F 23.0 °F 26.6 °F 80% 30.06 in 10.0 mi NNW 11.5 mph - N/A   Mostly Cloudy
9:35 PM 32.0 °F 23.6 °F 26.6 °F 80% 30.07 in 10.0 mi NNW 10.4 mph - N/A   Mostly Cloudy
9:55 PM 33.8 °F 25.3 °F 26.6 °F 75% 30.07 in 8.0 mi NNW 11.5 mph 17.3 mph N/A   Mostly Cloudy
10:15 PM 32.0 °F 23.0 °F 26.6 °F 80% 30.08 in 10.0 mi NNW 11.5 mph - N/A   Mostly Cloudy
10:35 PM 32.0 °F 24.2 °F 26.6 °F 80% 30.08 in 10.0 mi NNW 9.2 mph - N/A   Overcast
10:55 PM 32.0 °F 24.2 °F 26.6 °F 80% 30.09 in 10.0 mi NNW 9.2 mph - N/A   Mostly Cloudy
11:15 PM 32.0 °F 23.6 °F 26.6 °F 80% 30.09 in 10.0 mi NNW 10.4 mph 17.3 mph N/A   Mostly Cloudy
11:35 PM 32.0 °F 23.6 °F 26.6 °F 80% 30.10 in 10.0 mi NNW 10.4 mph 16.1 mph N/A   Scattered Clouds
11:55 PM 30.2 °F 21.9 °F 24.8 °F 80% 30.10 in 10.0 mi NNW 9.2 mph - N/A   Scattered Clouds